Year,Month,Day,Hour,Minute,Value (Times are PST for temperature in C)
2014,02,06,00,00,-3.30
2014,02,06,00,01,-3.30
2014,02,06,00,02,-3.30
2014,02,06,00,03,-3.30
2014,02,06,00,04,-3.30
2014,02,06,00,05,-3.30
2014,02,06,00,06,-3.30
2014,02,06,00,07,-3.30
2014,02,06,00,08,-3.30
2014,02,06,00,09,-3.30
2014,02,06,00,10,-3.30
2014,02,06,00,11,-3.30
2014,02,06,00,12,-3.40
2014,02,06,00,13,-3.40
2014,02,06,00,14,-3.40
2014,02,06,00,15,-3.40
2014,02,06,00,16,-3.40
2014,02,06,00,17,-3.40
2014,02,06,00,18,-3.40
2014,02,06,00,19,-3.40
2014,02,06,00,20,-3.40
2014,02,06,00,21,-3.40
2014,02,06,00,22,-3.40
2014,02,06,00,23,-3.30
2014,02,06,00,24,-3.30
2014,02,06,00,25,-3.30
2014,02,06,00,26,-3.30
2014,02,06,00,27,-3.30
2014,02,06,00,28,-3.30
2014,02,06,00,29,-3.30
2014,02,06,00,30,-3.30
2014,02,06,00,31,-3.30
2014,02,06,00,32,-3.30
2014,02,06,00,33,-3.30
2014,02,06,00,34,-3.30
2014,02,06,00,35,-3.40
2014,02,06,00,36,-3.40
2014,02,06,00,37,-3.40
2014,02,06,00,38,-3.30
2014,02,06,00,39,-3.30
2014,02,06,00,40,-3.30
2014,02,06,00,41,-3.30
2014,02,06,00,42,-3.30
2014,02,06,00,43,-3.30
2014,02,06,00,44,-3.30
2014,02,06,00,45,-3.30
2014,02,06,00,46,-3.30
2014,02,06,00,47,-3.30
2014,02,06,00,48,-3.30
2014,02,06,00,49,-3.30
2014,02,06,00,50,-3.30
2014,02,06,00,51,-3.30
2014,02,06,00,52,-3.30
2014,02,06,00,53,-3.30
2014,02,06,00,54,-3.30
2014,02,06,00,55,-3.30
2014,02,06,00,56,-3.30
2014,02,06,00,57,-3.40
2014,02,06,00,58,-3.30
2014,02,06,00,59,-3.40
2014,02,06,01,00,-3.30
2014,02,06,01,01,-3.40
2014,02,06,01,02,-3.40
2014,02,06,01,03,-3.40
2014,02,06,01,04,-3.40
2014,02,06,01,05,-3.40
2014,02,06,01,06,-3.40
2014,02,06,01,07,-3.40
2014,02,06,01,08,-3.40
2014,02,06,01,09,-3.40
2014,02,06,01,10,-3.40
2014,02,06,01,11,-3.40
2014,02,06,01,12,-3.40
2014,02,06,01,13,-3.40
2014,02,06,01,14,-3.40
2014,02,06,01,15,-3.40
2014,02,06,01,16,-3.40
2014,02,06,01,17,-3.40
2014,02,06,01,18,-3.40
2014,02,06,01,19,-3.40
2014,02,06,01,20,-3.40
2014,02,06,01,21,-3.40
2014,02,06,01,22,-3.40
2014,02,06,01,23,-3.40
2014,02,06,01,24,-3.40
2014,02,06,01,25,-3.40
2014,02,06,01,26,-3.40
2014,02,06,01,27,-3.40
2014,02,06,01,28,-3.40
2014,02,06,01,29,-3.40
2014,02,06,01,30,-3.40
2014,02,06,01,31,-3.40
2014,02,06,01,32,-3.40
2014,02,06,01,33,-3.40
2014,02,06,01,34,-3.50
2014,02,06,01,35,-3.50
2014,02,06,01,36,-3.50
2014,02,06,01,37,-3.50
2014,02,06,01,38,-3.50
2014,02,06,01,39,-3.50
2014,02,06,01,40,-3.50
2014,02,06,01,41,-3.50
2014,02,06,01,42,-3.50
2014,02,06,01,43,-3.50
2014,02,06,01,44,-3.50
2014,02,06,01,45,-3.50
2014,02,06,01,46,-3.50
2014,02,06,01,47,-3.50
2014,02,06,01,48,-3.50
2014,02,06,01,49,-3.50
2014,02,06,01,50,-3.50
2014,02,06,01,51,-3.50
2014,02,06,01,52,-3.50
2014,02,06,01,53,-3.50
2014,02,06,01,54,-3.50
2014,02,06,01,55,-3.50
2014,02,06,01,56,-3.50
2014,02,06,01,57,-3.50
2014,02,06,01,58,-3.50
2014,02,06,01,59,-3.50
2014,02,06,02,00,-3.50
2014,02,06,02,01,-3.50
2014,02,06,02,02,-3.50
2014,02,06,02,03,-3.50
2014,02,06,02,04,-3.50
2014,02,06,02,05,-3.50
2014,02,06,02,06,-3.50
2014,02,06,02,07,-3.50
2014,02,06,02,08,-3.50
2014,02,06,02,09,-3.50
2014,02,06,02,10,-3.50
2014,02,06,02,11,-3.60
2014,02,06,02,12,-3.50
2014,02,06,02,13,-3.50
2014,02,06,02,14,-3.60
2014,02,06,02,15,-3.50
2014,02,06,02,16,-3.60
2014,02,06,02,17,-3.50
2014,02,06,02,18,-3.50
2014,02,06,02,19,-3.50
2014,02,06,02,20,-3.50
2014,02,06,02,21,-3.50
2014,02,06,02,22,-3.50
2014,02,06,02,23,-3.50
2014,02,06,02,24,-3.50
2014,02,06,02,25,-3.60
2014,02,06,02,26,-3.60
2014,02,06,02,27,-3.50
2014,02,06,02,28,-3.50
2014,02,06,02,29,-3.50
2014,02,06,02,30,-3.50
2014,02,06,02,31,-3.50
2014,02,06,02,32,-3.50
2014,02,06,02,33,-3.50
2014,02,06,02,34,-3.50
2014,02,06,02,35,-3.50
2014,02,06,02,36,-3.50
2014,02,06,02,37,-3.50
2014,02,06,02,38,-3.50
2014,02,06,02,39,-3.50
2014,02,06,02,40,-3.50
2014,02,06,02,41,-3.50
2014,02,06,02,42,-3.50
2014,02,06,02,43,-3.50
2014,02,06,02,44,-3.50
2014,02,06,02,45,-3.50
2014,02,06,02,46,-3.50
2014,02,06,02,47,-3.50
2014,02,06,02,48,-3.50
2014,02,06,02,49,-3.50
2014,02,06,02,50,-3.50
2014,02,06,02,51,-3.50
2014,02,06,02,52,-3.50
2014,02,06,02,53,-3.50
2014,02,06,02,54,-3.50
2014,02,06,02,55,-3.50
2014,02,06,02,56,-3.50
2014,02,06,02,57,-3.50
2014,02,06,02,58,-3.60
2014,02,06,02,59,-3.50
2014,02,06,03,00,-3.50
2014,02,06,03,01,-3.60
2014,02,06,03,02,-3.50
2014,02,06,03,03,-3.50
2014,02,06,03,04,-3.60
2014,02,06,03,05,-3.60
2014,02,06,03,06,-3.50
2014,02,06,03,07,-3.50
2014,02,06,03,08,-3.50
2014,02,06,03,09,-3.50
2014,02,06,03,10,-3.50
2014,02,06,03,11,-3.60
2014,02,06,03,12,-3.60
2014,02,06,03,13,-3.60
2014,02,06,03,14,-3.60
2014,02,06,03,15,-3.60
2014,02,06,03,16,-3.60
2014,02,06,03,17,-3.60
2014,02,06,03,18,-3.60
2014,02,06,03,19,-3.60
2014,02,06,03,20,-3.60
2014,02,06,03,21,-3.60
2014,02,06,03,22,-3.60
2014,02,06,03,23,-3.60
2014,02,06,03,24,-3.60
2014,02,06,03,25,-3.60
2014,02,06,03,26,-3.60
2014,02,06,03,27,-3.60
2014,02,06,03,28,-3.60
2014,02,06,03,29,-3.60
2014,02,06,03,30,-3.60
2014,02,06,03,31,-3.60
2014,02,06,03,32,-3.60
2014,02,06,03,33,-3.60
2014,02,06,03,34,-3.60
2014,02,06,03,35,-3.60
2014,02,06,03,36,-3.60
2014,02,06,03,37,-3.70
2014,02,06,03,38,-3.70
2014,02,06,03,39,-3.70
2014,02,06,03,40,-3.70
2014,02,06,03,41,-3.70
2014,02,06,03,42,-3.70
2014,02,06,03,43,-3.70
2014,02,06,03,44,-3.70
2014,02,06,03,45,-3.70
2014,02,06,03,46,-3.70
2014,02,06,03,47,-3.70
2014,02,06,03,48,-3.70
2014,02,06,03,49,-3.70
2014,02,06,03,50,-3.70
2014,02,06,03,51,-3.70
2014,02,06,03,52,-3.70
2014,02,06,03,53,-3.70
2014,02,06,03,54,-3.70
2014,02,06,03,55,-3.70
2014,02,06,03,56,-3.70
2014,02,06,03,57,-3.70
2014,02,06,03,58,-3.70
2014,02,06,03,59,-3.70
2014,02,06,04,00,-3.80
2014,02,06,04,01,-3.80
2014,02,06,04,02,-3.80
2014,02,06,04,03,-3.80
2014,02,06,04,04,-3.80
2014,02,06,04,05,-3.80
2014,02,06,04,06,-3.80
2014,02,06,04,07,-3.80
2014,02,06,04,08,-3.80
2014,02,06,04,09,-3.80
2014,02,06,04,10,-3.80
2014,02,06,04,11,-3.80
2014,02,06,04,12,-3.80
2014,02,06,04,13,-3.80
2014,02,06,04,14,-3.80
2014,02,06,04,15,-3.80
2014,02,06,04,16,-3.80
2014,02,06,04,17,-3.80
2014,02,06,04,18,-3.80
2014,02,06,04,19,-3.80
2014,02,06,04,20,-3.80
2014,02,06,04,21,-3.80
2014,02,06,04,22,-3.80
2014,02,06,04,23,-3.80
2014,02,06,04,24,-3.80
2014,02,06,04,25,-3.80
2014,02,06,04,26,-3.80
2014,02,06,04,27,-3.80
2014,02,06,04,28,-3.80
2014,02,06,04,29,-3.80
2014,02,06,04,30,-3.80
2014,02,06,04,31,-3.80
2014,02,06,04,32,-3.80
2014,02,06,04,33,-3.80
2014,02,06,04,34,-3.80
2014,02,06,04,35,-3.80
2014,02,06,04,36,-3.80
2014,02,06,04,37,-3.80
2014,02,06,04,38,-3.80
2014,02,06,04,39,-3.80
2014,02,06,04,40,-3.80
2014,02,06,04,41,-3.80
2014,02,06,04,42,-3.80
2014,02,06,04,43,-3.80
2014,02,06,04,44,-3.80
2014,02,06,04,45,-3.80
2014,02,06,04,46,-3.80
2014,02,06,04,47,-3.80
2014,02,06,04,48,-3.80
2014,02,06,04,49,-3.80
2014,02,06,04,50,-3.80
2014,02,06,04,51,-3.80
2014,02,06,04,52,-3.80
2014,02,06,04,53,-3.80
2014,02,06,04,54,-3.80
2014,02,06,04,55,-3.80
2014,02,06,04,56,-3.80
2014,02,06,04,57,-3.80
2014,02,06,04,58,-3.80
2014,02,06,04,59,-3.80
2014,02,06,05,00,-3.80
2014,02,06,05,01,-3.80
2014,02,06,05,02,-3.80
2014,02,06,05,03,-3.80
2014,02,06,05,04,-3.80
2014,02,06,05,05,-3.80
2014,02,06,05,06,-3.80
2014,02,06,05,07,-3.80
2014,02,06,05,08,-3.80
2014,02,06,05,09,-3.80
2014,02,06,05,10,-3.80
2014,02,06,05,11,-3.80
2014,02,06,05,12,-3.80
2014,02,06,05,13,-3.80
2014,02,06,05,14,-3.80
2014,02,06,05,15,-3.80
2014,02,06,05,16,-3.80
2014,02,06,05,17,-3.80
2014,02,06,05,18,-3.80
2014,02,06,05,19,-3.80
2014,02,06,05,20,-3.80
2014,02,06,05,21,-3.80
2014,02,06,05,22,-3.80
2014,02,06,05,23,-3.80
2014,02,06,05,24,-3.80
2014,02,06,05,25,-3.80
2014,02,06,05,26,-3.80
2014,02,06,05,27,-3.80
2014,02,06,05,28,-3.80
2014,02,06,05,29,-3.80
2014,02,06,05,30,-3.80
2014,02,06,05,31,-3.80
2014,02,06,05,32,-3.80
2014,02,06,05,33,-3.80
2014,02,06,05,34,-3.80
2014,02,06,05,35,-3.80
2014,02,06,05,36,-3.80
2014,02,06,05,37,-3.80
2014,02,06,05,38,-3.80
2014,02,06,05,39,-3.80
2014,02,06,05,40,-3.80
2014,02,06,05,41,-3.80
2014,02,06,05,42,-3.80
2014,02,06,05,43,-3.80
2014,02,06,05,44,-3.80
2014,02,06,05,45,-3.80
2014,02,06,05,46,-3.80
2014,02,06,05,47,-3.80
2014,02,06,05,48,-3.80
2014,02,06,05,49,-3.80
2014,02,06,05,50,-3.80
2014,02,06,05,51,-3.80
2014,02,06,05,52,-3.80
2014,02,06,05,53,-3.80
2014,02,06,05,54,-3.80
2014,02,06,05,55,-3.80
2014,02,06,05,56,-3.80
2014,02,06,05,57,-3.80
2014,02,06,05,58,-3.80
2014,02,06,05,59,-3.80
2014,02,06,06,00,-3.80
2014,02,06,06,01,-3.80
2014,02,06,06,02,-3.80
2014,02,06,06,03,-3.80
2014,02,06,06,04,-3.70
2014,02,06,06,05,-3.70
2014,02,06,06,06,-3.70
2014,02,06,06,07,-3.70
2014,02,06,06,08,-3.80
2014,02,06,06,09,-3.80
2014,02,06,06,10,-3.80
2014,02,06,06,11,-3.80
2014,02,06,06,12,-3.80
2014,02,06,06,13,-3.80
2014,02,06,06,14,-3.80
2014,02,06,06,15,-3.80
2014,02,06,06,16,-3.80
2014,02,06,06,17,-3.80
2014,02,06,06,18,-3.80
2014,02,06,06,19,-3.80
2014,02,06,06,20,-3.80
2014,02,06,06,21,-3.80
2014,02,06,06,22,-3.80
2014,02,06,06,23,-3.80
2014,02,06,06,24,-3.80
2014,02,06,06,25,-3.80
2014,02,06,06,26,-3.80
2014,02,06,06,27,-3.80
2014,02,06,06,28,-3.80
2014,02,06,06,29,-3.80
2014,02,06,06,30,-3.80
2014,02,06,06,31,-3.80
2014,02,06,06,32,-3.80
2014,02,06,06,33,-3.80
2014,02,06,06,34,-3.80
2014,02,06,06,35,-3.80
2014,02,06,06,36,-3.80
2014,02,06,06,37,-3.80
2014,02,06,06,38,-3.80
2014,02,06,06,39,-3.80
2014,02,06,06,40,-3.80
2014,02,06,06,41,-3.80
2014,02,06,06,42,-3.80
2014,02,06,06,43,-3.80
2014,02,06,06,44,-3.80
2014,02,06,06,45,-3.80
2014,02,06,06,46,-3.80
2014,02,06,06,47,-3.80
2014,02,06,06,48,-3.80
2014,02,06,06,49,-3.80
2014,02,06,06,50,-3.80
2014,02,06,06,51,-3.80
2014,02,06,06,52,-3.80
2014,02,06,06,53,-3.80
2014,02,06,06,54,-3.80
2014,02,06,06,55,-3.80
2014,02,06,06,56,-3.80
2014,02,06,06,57,-3.90
2014,02,06,06,58,-3.90
2014,02,06,06,59,-3.90
2014,02,06,07,00,-3.90
2014,02,06,07,01,-3.90
2014,02,06,07,02,-3.90
2014,02,06,07,03,-3.90
2014,02,06,07,04,-3.90
2014,02,06,07,05,-3.90
2014,02,06,07,06,-3.80
2014,02,06,07,07,-3.80
2014,02,06,07,08,-3.80
2014,02,06,07,09,-3.80
2014,02,06,07,10,-3.80
2014,02,06,07,11,-3.80
2014,02,06,07,12,-3.80
2014,02,06,07,13,-3.80
2014,02,06,07,14,-3.80
2014,02,06,07,15,-3.80
2014,02,06,07,16,-3.80
2014,02,06,07,17,-3.80
2014,02,06,07,18,-3.80
2014,02,06,07,19,-3.80
2014,02,06,07,20,-3.80
2014,02,06,07,21,-3.80
2014,02,06,13,52,-0.80
2014,02,06,13,53,-0.80
2014,02,06,13,54,-0.80
2014,02,06,13,55,-0.80
2014,02,06,13,56,-0.80
2014,02,06,13,57,-0.80
2014,02,06,13,58,-0.80
2014,02,06,13,59,-0.80
2014,02,06,14,00,-0.80
2014,02,06,14,01,-0.80
2014,02,06,14,02,-0.80
2014,02,06,14,03,-0.80
2014,02,06,14,04,-0.80
2014,02,06,14,05,-0.80
2014,02,06,14,06,-0.80
2014,02,06,14,07,-0.80
2014,02,06,14,08,-0.80
2014,02,06,14,09,-0.80
2014,02,06,14,10,-0.80
2014,02,06,14,11,-0.80
2014,02,06,14,12,-0.80
2014,02,06,14,13,-0.80
2014,02,06,14,14,-0.80
2014,02,06,14,15,-0.80
2014,02,06,14,16,-0.80
2014,02,06,14,17,-0.80
2014,02,06,14,18,-0.80
2014,02,06,14,19,-0.70
2014,02,06,14,20,-0.70
2014,02,06,14,21,-0.70
2014,02,06,14,22,-0.70
2014,02,06,14,23,-0.70
2014,02,06,14,24,-0.70
2014,02,06,14,25,-0.70
2014,02,06,14,26,-0.70
2014,02,06,14,27,-0.70
2014,02,06,14,28,-0.70
2014,02,06,14,29,-0.70
2014,02,06,14,30,-0.70
2014,02,06,14,31,-0.60
2014,02,06,14,32,-0.60
2014,02,06,14,33,-0.60
2014,02,06,14,34,-0.60
2014,02,06,14,35,-0.60
2014,02,06,14,36,-0.60
2014,02,06,14,37,-0.60
2014,02,06,14,38,-0.60
2014,02,06,14,39,-0.70
2014,02,06,14,40,-0.80
2014,02,06,14,41,-0.80
2014,02,06,14,42,-0.80
2014,02,06,14,43,-0.80
2014,02,06,14,44,-0.70
2014,02,06,14,45,-0.70
2014,02,06,14,46,-0.70
2014,02,06,14,47,-0.70
2014,02,06,14,48,-0.70
2014,02,06,14,49,-0.70
2014,02,06,14,50,-0.70
2014,02,06,14,51,-0.70
2014,02,06,14,52,-0.70
2014,02,06,14,53,-0.70
2014,02,06,14,54,-0.70
2014,02,06,14,55,-0.70
2014,02,06,14,56,-0.70
2014,02,06,14,57,-0.70
2014,02,06,14,58,-0.70
2014,02,06,14,59,-0.60
2014,02,06,15,00,-0.60
2014,02,06,15,01,-0.60
2014,02,06,15,02,-0.60
2014,02,06,15,03,-0.60
2014,02,06,15,04,-0.60
2014,02,06,15,05,-0.60
2014,02,06,15,06,-0.60
2014,02,06,15,07,-0.60
2014,02,06,15,08,-0.60
2014,02,06,15,09,-0.50
2014,02,06,15,10,-0.50
2014,02,06,15,11,-0.50
2014,02,06,15,12,-0.50
2014,02,06,15,13,-0.50
2014,02,06,15,14,-0.50
2014,02,06,15,15,-0.40
2014,02,06,15,16,-0.40
2014,02,06,15,17,-0.50
2014,02,06,15,18,-0.50
2014,02,06,15,19,-0.50
2014,02,06,15,20,-0.50
2014,02,06,15,21,-0.50
2014,02,06,15,22,-0.50
2014,02,06,15,23,-0.50
2014,02,06,15,24,-0.50
2014,02,06,15,25,-0.50
2014,02,06,15,26,-0.50
2014,02,06,15,27,-0.60
2014,02,06,15,28,-0.60
2014,02,06,15,29,-0.60
2014,02,06,15,30,-0.60
2014,02,06,15,31,-0.60
2014,02,06,15,32,-0.60
2014,02,06,15,33,-0.60
2014,02,06,15,34,-0.60
2014,02,06,15,35,-0.50
2014,02,06,15,36,-0.50
2014,02,06,15,37,-0.50
2014,02,06,15,38,-0.50
2014,02,06,15,39,-0.60
2014,02,06,15,40,-0.60
2014,02,06,15,41,-0.60
2014,02,06,15,42,-0.60
2014,02,06,15,43,-0.60
2014,02,06,15,44,-0.60
2014,02,06,15,45,-0.60
2014,02,06,15,46,-0.60
2014,02,06,15,47,-0.60
2014,02,06,15,48,-0.60
2014,02,06,15,49,-0.60
2014,02,06,15,50,-0.60
2014,02,06,15,51,-0.60
2014,02,06,15,52,-0.60
2014,02,06,15,53,-0.60
2014,02,06,15,54,-0.60
2014,02,06,15,55,-0.50
2014,02,06,15,56,-0.50
2014,02,06,15,57,-0.50
2014,02,06,15,58,-0.50
2014,02,06,15,59,-0.50
2014,02,06,16,00,-0.50
2014,02,06,16,01,-0.50
2014,02,06,16,02,-0.50
2014,02,06,16,03,-0.50
2014,02,06,16,04,-0.50
2014,02,06,16,05,-0.50
2014,02,06,16,06,-0.50
2014,02,06,16,07,-0.50
2014,02,06,16,08,-0.50
2014,02,06,16,09,-0.50
2014,02,06,16,10,-0.50
2014,02,06,16,11,-0.40
2014,02,06,16,12,-0.40
2014,02,06,16,13,-0.40
2014,02,06,16,14,-0.40
2014,02,06,16,15,-0.40
2014,02,06,16,16,-0.40
2014,02,06,16,17,-0.40
2014,02,06,16,18,-0.40
2014,02,06,16,19,-0.40
2014,02,06,16,20,-0.40
2014,02,06,16,21,-0.40
2014,02,06,16,22,-0.40
2014,02,06,16,23,-0.40
2014,02,06,16,24,-0.40
2014,02,06,16,25,-0.40
2014,02,06,16,26,-0.40
2014,02,06,16,27,-0.30
2014,02,06,16,28,-0.30
2014,02,06,16,29,-0.30
2014,02,06,16,30,-0.30
2014,02,06,16,31,-0.30
2014,02,06,16,32,-0.30
2014,02,06,16,33,-0.30
2014,02,06,16,34,-0.30
2014,02,06,16,35,-0.20
2014,02,06,16,36,-0.20
2014,02,06,16,37,-0.20
2014,02,06,16,38,-0.20
2014,02,06,16,39,-0.20
2014,02,06,16,40,-0.10
2014,02,06,16,41,-0.10
2014,02,06,16,42,-0.10
2014,02,06,16,43,-0.10
2014,02,06,16,44,-0.10
2014,02,06,16,45,-0.10
2014,02,06,16,46,-0.10
2014,02,06,16,47,-0.10
2014,02,06,16,48,-0.10
2014,02,06,16,49,-0.10
2014,02,06,16,50,-0.10
2014,02,06,16,51,-0.10
2014,02,06,16,52,-0.20
2014,02,06,16,53,-0.20
2014,02,06,16,54,-0.20
2014,02,06,16,55,-0.20
2014,02,06,16,56,-0.20
2014,02,06,16,57,-0.20
2014,02,06,16,58,-0.20
2014,02,06,16,59,-0.20
2014,02,06,17,00,-0.20
2014,02,06,17,01,-0.20
2014,02,06,17,02,-0.20
2014,02,06,17,03,-0.20
2014,02,06,17,04,-0.20
2014,02,06,17,05,-0.30
2014,02,06,17,06,-0.30
2014,02,06,17,07,-0.30
2014,02,06,17,08,-0.30
2014,02,06,17,09,-0.30
2014,02,06,17,10,-0.30
2014,02,06,17,11,-0.30
2014,02,06,17,12,-0.30
2014,02,06,17,13,-0.30
2014,02,06,17,14,-0.30
2014,02,06,17,15,-0.30
2014,02,06,17,16,-0.30
2014,02,06,17,17,-0.30
2014,02,06,17,18,-0.30
2014,02,06,17,19,-0.30
2014,02,06,17,20,-0.30
2014,02,06,17,21,-0.40
2014,02,06,17,22,-0.40
2014,02,06,17,23,-0.40
2014,02,06,17,24,-0.40
2014,02,06,17,25,-0.40
2014,02,06,17,26,-0.40
2014,02,06,17,27,-0.40
2014,02,06,17,28,-0.50
2014,02,06,17,29,-0.50
2014,02,06,17,30,-0.50
2014,02,06,17,31,-0.50
2014,02,06,17,32,-0.50
2014,02,06,17,33,-0.50
2014,02,06,17,34,-0.50
2014,02,06,17,35,-0.50
2014,02,06,17,36,-0.50
2014,02,06,17,37,-0.50
2014,02,06,17,38,-0.60
2014,02,06,17,39,-0.60
2014,02,06,17,40,-0.60
2014,02,06,17,41,-0.60
2014,02,06,17,42,-0.60
2014,02,06,17,43,-0.60
2014,02,06,17,44,-0.60
2014,02,06,17,45,-0.60
2014,02,06,17,46,-0.60
2014,02,06,17,47,-0.60
2014,02,06,17,48,-0.60
2014,02,06,17,49,-0.60
2014,02,06,17,50,-0.60
2014,02,06,17,51,-0.60
2014,02,06,17,52,-0.60
2014,02,06,17,53,-0.70
2014,02,06,17,54,-0.70
2014,02,06,17,55,-0.70
2014,02,06,17,56,-0.70
2014,02,06,17,57,-0.70
2014,02,06,17,58,-0.70
2014,02,06,17,59,-0.70
2014,02,06,18,00,-0.70
2014,02,06,18,01,-0.70
2014,02,06,18,02,-0.70
2014,02,06,18,03,-0.70
2014,02,06,18,04,-0.70
2014,02,06,18,05,-0.70
2014,02,06,18,06,-0.70
2014,02,06,18,07,-0.70
2014,02,06,18,08,-0.70
2014,02,06,18,09,-0.70
2014,02,06,18,10,-0.70
2014,02,06,18,11,-0.70
2014,02,06,18,12,-0.70
2014,02,06,18,13,-0.70
2014,02,06,18,14,-0.70
2014,02,06,18,15,-0.70
2014,02,06,18,16,-0.70
2014,02,06,18,17,-0.70
2014,02,06,18,18,-0.70
2014,02,06,18,19,-0.70
2014,02,06,18,20,-0.70
2014,02,06,18,21,-0.70
2014,02,06,18,22,-0.70
2014,02,06,18,23,-0.70
2014,02,06,18,24,-0.70
2014,02,06,18,25,-0.70
2014,02,06,18,26,-0.70
2014,02,06,18,27,-0.70
2014,02,06,18,28,-0.70
2014,02,06,18,29,-0.70
2014,02,06,18,30,-0.70
2014,02,06,18,31,-0.70
2014,02,06,18,32,-0.70
2014,02,06,18,33,-0.70
2014,02,06,18,34,-0.70
2014,02,06,18,35,-0.70
2014,02,06,18,36,-0.70
2014,02,06,18,37,-0.70
2014,02,06,18,38,-0.70
2014,02,06,18,39,-0.70
2014,02,06,18,40,-0.70
2014,02,06,18,41,-0.70
2014,02,06,18,42,-0.70
2014,02,06,18,43,-0.70
2014,02,06,18,44,-0.70
2014,02,06,18,45,-0.70
2014,02,06,18,46,-0.70
2014,02,06,18,47,-0.70
2014,02,06,18,48,-0.70
2014,02,06,18,49,-0.70
2014,02,06,18,50,-0.70
2014,02,06,18,51,-0.70
2014,02,06,18,52,-0.70
2014,02,06,18,53,-0.70
2014,02,06,18,54,-0.70
2014,02,06,18,55,-0.70
2014,02,06,18,56,-0.70
2014,02,06,18,57,-0.70
2014,02,06,18,58,-0.70
2014,02,06,18,59,-0.70
2014,02,06,19,00,-0.70
2014,02,06,19,01,-0.70
2014,02,06,19,02,-0.70
2014,02,06,19,03,-0.70
2014,02,06,19,04,-0.70
2014,02,06,19,05,-0.70
2014,02,06,19,06,-0.70
2014,02,06,19,07,-0.70
2014,02,06,19,08,-0.70
2014,02,06,19,09,-0.70
2014,02,06,19,10,-0.80
2014,02,06,19,11,-0.80
2014,02,06,19,12,-0.80
2014,02,06,19,13,-0.80
2014,02,06,19,14,-0.80
2014,02,06,19,15,-0.80
2014,02,06,19,16,-0.80
2014,02,06,19,17,-0.80
2014,02,06,19,18,-0.80
2014,02,06,19,19,-0.80
2014,02,06,19,20,-0.80
2014,02,06,19,21,-0.80
2014,02,06,19,22,-0.80
2014,02,06,19,23,-0.90
2014,02,06,19,24,-0.90
2014,02,06,19,25,-0.90
2014,02,06,19,26,-0.90
2014,02,06,19,27,-0.90
2014,02,06,19,28,-0.90
2014,02,06,19,29,-0.90
2014,02,06,19,30,-0.90
2014,02,06,19,31,-0.90
2014,02,06,19,32,-0.90
2014,02,06,19,33,-0.90
2014,02,06,19,34,-0.90
2014,02,06,19,35,-0.90
2014,02,06,19,36,-0.90
2014,02,06,19,37,-0.90
2014,02,06,19,38,-0.90
2014,02,06,19,39,-0.80
2014,02,06,19,40,-0.80
2014,02,06,19,41,-0.80
2014,02,06,19,42,-0.80
2014,02,06,19,43,-0.70
2014,02,06,19,44,-0.70
2014,02,06,19,45,-0.70
2014,02,06,19,46,-0.70
2014,02,06,19,47,-0.70
2014,02,06,19,48,-0.70
2014,02,06,19,49,-0.70
2014,02,06,19,50,-0.70
2014,02,06,19,51,-0.60
2014,02,06,19,52,-0.60
2014,02,06,19,53,-0.60
2014,02,06,19,54,-0.60
2014,02,06,19,55,-0.60
2014,02,06,19,56,-0.50
2014,02,06,19,57,-0.50
2014,02,06,19,58,-0.50
2014,02,06,19,59,-0.50
2014,02,06,20,00,-0.50
2014,02,06,20,01,-0.50
2014,02,06,20,02,-0.50
2014,02,06,20,03,-0.50
2014,02,06,20,04,-0.50
2014,02,06,20,05,-0.50
2014,02,06,20,06,-0.50
2014,02,06,20,07,-0.50
2014,02,06,20,08,-0.50
2014,02,06,20,09,-0.50
2014,02,06,20,10,-0.50
2014,02,06,20,11,-0.50
2014,02,06,20,12,-0.50
2014,02,06,20,13,-0.50
2014,02,06,20,14,-0.50
2014,02,06,20,15,-0.60
2014,02,06,20,16,-0.60
2014,02,06,20,17,-0.60
2014,02,06,20,18,-0.60
2014,02,06,20,19,-0.60
2014,02,06,20,20,-0.60
2014,02,06,20,21,-0.60
2014,02,06,20,22,-0.60
2014,02,06,20,23,-0.60
2014,02,06,20,24,-0.60
2014,02,06,20,25,-0.60
2014,02,06,20,26,-0.60
2014,02,06,20,27,-0.60
2014,02,06,20,28,-0.60
2014,02,06,20,29,-0.60
2014,02,06,20,30,-0.60
2014,02,06,20,31,-0.60
2014,02,06,20,32,-0.60
2014,02,06,20,33,-0.50
2014,02,06,20,34,-0.50
2014,02,06,20,35,-0.50
2014,02,06,20,36,-0.50
2014,02,06,20,37,-0.50
2014,02,06,20,38,-0.50
2014,02,06,20,39,-0.50
2014,02,06,20,40,-0.50
2014,02,06,20,41,-0.40
2014,02,06,20,42,-0.40
2014,02,06,20,43,-0.40
2014,02,06,20,44,-0.40
2014,02,06,20,45,-0.30
2014,02,06,20,46,-0.30
2014,02,06,20,47,-0.30
2014,02,06,20,48,-0.30
2014,02,06,20,49,-0.30
2014,02,06,20,50,-0.30
2014,02,06,20,51,-0.30
2014,02,06,20,52,-0.40
2014,02,06,20,53,-0.40
2014,02,06,20,54,-0.40
2014,02,06,20,55,-0.40
2014,02,06,20,56,-0.40
2014,02,06,20,57,-0.40
2014,02,06,20,58,-0.40
2014,02,06,20,59,-0.40
2014,02,06,21,00,-0.40
2014,02,06,21,01,-0.50
2014,02,06,21,02,-0.50
2014,02,06,21,03,-0.50
2014,02,06,21,04,-0.50
2014,02,06,21,05,-0.50
2014,02,06,21,06,-0.50
2014,02,06,21,07,-0.50
2014,02,06,21,08,-0.50
2014,02,06,21,09,-0.50
2014,02,06,21,10,-0.50
2014,02,06,21,11,-0.50
2014,02,06,21,12,-0.60
2014,02,06,21,13,-0.60
2014,02,06,21,14,-0.60
2014,02,06,21,15,-0.60
2014,02,06,21,16,-0.60
2014,02,06,21,17,-0.60
2014,02,06,21,18,-0.60
2014,02,06,21,19,-0.60
2014,02,06,21,20,-0.60
2014,02,06,21,21,-0.60
2014,02,06,21,22,-0.60
2014,02,06,21,23,-0.60
2014,02,06,21,24,-0.60
2014,02,06,21,25,-0.60
2014,02,06,21,26,-0.60
2014,02,06,21,27,-0.60
2014,02,06,21,28,-0.70
2014,02,06,21,29,-0.70
2014,02,06,21,30,-0.70
2014,02,06,21,31,-0.70
2014,02,06,21,32,-0.70
2014,02,06,21,33,-0.60
2014,02,06,21,34,-0.60
2014,02,06,21,35,-0.60
2014,02,06,21,36,-0.60
2014,02,06,21,37,-0.60
2014,02,06,21,38,-0.60
2014,02,06,21,39,-0.60
2014,02,06,21,40,-0.50
2014,02,06,21,41,-0.50
2014,02,06,21,42,-0.50
2014,02,06,21,43,-0.50
2014,02,06,21,44,-0.50
2014,02,06,21,45,-0.50
2014,02,06,21,46,-0.50
2014,02,06,21,47,-0.50
2014,02,06,21,48,-0.50
2014,02,06,21,49,-0.50
2014,02,06,21,50,-0.50
2014,02,06,21,51,-0.50
2014,02,06,21,52,-0.50
2014,02,06,21,53,-0.60
2014,02,06,21,54,-0.60
2014,02,06,21,55,-0.60
2014,02,06,21,56,-0.60
2014,02,06,21,57,-0.60
2014,02,06,21,58,-0.60
2014,02,06,21,59,-0.60
2014,02,06,22,00,-0.60
2014,02,06,22,01,-0.60
2014,02,06,22,02,-0.60
2014,02,06,22,03,-0.60
2014,02,06,22,04,-0.60
2014,02,06,22,05,-0.60
2014,02,06,22,06,-0.60
2014,02,06,22,07,-0.60
2014,02,06,22,08,-0.60
2014,02,06,22,09,-0.60
2014,02,06,22,10,-0.70
2014,02,06,22,11,-0.70
2014,02,06,22,12,-0.70
2014,02,06,22,13,-0.70
2014,02,06,22,14,-0.70
2014,02,06,22,15,-0.70
2014,02,06,22,16,-0.70
2014,02,06,22,17,-0.70
2014,02,06,22,18,-0.70
2014,02,06,22,19,-0.70
2014,02,06,22,20,-0.70
2014,02,06,22,21,-0.70
2014,02,06,22,22,-0.70
2014,02,06,22,23,-0.70
2014,02,06,22,24,-0.70
2014,02,06,22,25,-0.70
2014,02,06,22,26,-0.70
2014,02,06,22,27,-0.70
2014,02,06,22,28,-0.70
2014,02,06,22,29,-0.70
2014,02,06,22,30,-0.80
2014,02,06,22,31,-0.80
2014,02,06,22,32,-0.80
2014,02,06,22,33,-0.80
2014,02,06,22,34,-0.80
2014,02,06,22,35,-0.80
2014,02,06,22,36,-0.80
2014,02,06,22,37,-0.80
2014,02,06,22,38,-0.80
2014,02,06,22,39,-0.80
2014,02,06,22,40,-0.80
2014,02,06,22,41,-0.80
2014,02,06,22,42,-0.80
2014,02,06,22,43,-0.70
2014,02,06,22,44,-0.70
2014,02,06,22,45,-0.70
2014,02,06,22,46,-0.70
2014,02,06,22,47,-0.70
2014,02,06,22,48,-0.70
2014,02,06,22,49,-0.70
2014,02,06,22,50,-0.70
2014,02,06,22,51,-0.70
2014,02,06,22,52,-0.70
2014,02,06,22,53,-0.70
2014,02,06,22,54,-0.70
2014,02,06,22,55,-0.70
2014,02,06,22,56,-0.70
2014,02,06,22,57,-0.70
2014,02,06,22,58,-0.70
2014,02,06,22,59,-0.70
2014,02,06,23,00,-0.70
2014,02,06,23,01,-0.70
2014,02,06,23,02,-0.70
2014,02,06,23,03,-0.70
2014,02,06,23,04,-0.70
2014,02,06,23,05,-0.70
2014,02,06,23,06,-0.70
2014,02,06,23,07,-0.70
2014,02,06,23,08,-0.70
2014,02,06,23,09,-0.70
2014,02,06,23,10,-0.70
2014,02,06,23,11,-0.70
2014,02,06,23,12,-0.70
2014,02,06,23,13,-0.70
2014,02,06,23,14,-0.70
2014,02,06,23,15,-0.70
2014,02,06,23,16,-0.80
2014,02,06,23,17,-0.80
2014,02,06,23,18,-0.80
2014,02,06,23,19,-0.80
2014,02,06,23,20,-0.80
2014,02,06,23,21,-0.80
2014,02,06,23,22,-0.80
2014,02,06,23,23,-0.80
2014,02,06,23,24,-0.80
2014,02,06,23,25,-0.80
2014,02,06,23,26,-0.80
2014,02,06,23,27,-0.80
2014,02,06,23,28,-0.80
2014,02,06,23,29,-0.80
2014,02,06,23,30,-0.80
2014,02,06,23,31,-0.80
2014,02,06,23,32,-0.80
2014,02,06,23,33,-0.80
2014,02,06,23,34,-0.80
2014,02,06,23,35,-0.80
2014,02,06,23,36,-0.80
2014,02,06,23,37,-0.80
2014,02,06,23,38,-0.80
2014,02,06,23,39,-0.80
2014,02,06,23,40,-0.80
2014,02,06,23,41,-0.80
2014,02,06,23,42,-0.80
2014,02,06,23,43,-0.80
2014,02,06,23,44,-0.80
2014,02,06,23,45,-0.80
2014,02,06,23,46,-0.70
2014,02,06,23,47,-0.70
2014,02,06,23,48,-0.70
2014,02,06,23,49,-0.70